SCP
0 0 0 0 -0 -0 0 0 0 0 -0 -0 -0 -0 -0 -0 -0 0 0 0 0 0 0 0 0 0 0 0 0 0 0 0 0 0 0 0 0 0 0 0 0 0 0 0 0 0 0
0 0 0 0 0 0 0 0 0 0 -0 -0 -0 -0 -0 -0 -0 -0 0 0 0 0 0 0 0 0 0 0 0 0 0 0 0 0 0 0 0 0 0 0 0 0 0 0 0 0 0
0 0 0 0 0 0 0 0 0 0 0 0 -0 -0 -0 -0 -0 -0 0 0 0 0 0 0 0 0 0 0 0 0 0 0 0 0 0 0 0 0 0 0 0 0 0 0 0 0 0
0 0 0 0 0 0 0 0 -0 -0 0 0 0 -0 -0 -0 -0 -0 -0 0 0 0 0 0 0 0 0 0 0 0 0 0 0 0 0 0 0 0 0 0 0 0 0 0 0 0 0
0 0 0 0 0 0 0 0 0 -0 -0 0 0 -0 -0 0 0 0 0 0 0 0 -0 -0 -0 0 0 0 0 0 0 0 0 0 0 0 0 0 0 0 0 0 0 0 -0 0 0
0 0 0 0 0 0 0 0 0 0 -0 -0 -0 -0 -0 -0 0 0 0 0 0 -0 -0 -0 0 0 0 0 0 0 0 -0 0 0 0 0 0 0 0 0 0 -0 0 0 0 0 0
0 0 0 0 0 0 0 0 0 0 0 -0 -0 -0 -0 -0 -0 0 0 0 0 0 0 0 0 0 0 0 0 0 0 0 0 0 0 0 0 0 0 0 0 0 0 0 0 0 0
0 0 0 0 0 0 0 -0 -0 -0 -0 0 0 0 -0 -0 -0 -0 -0 -0 0 0 0 0 0 0 0 0 0 0 0 0 0 0 0 0 0 0 0 0 0 0 0 0 0 0 0
0 0 0 0 0 0 0 -0 -0 -0 -0 -0 -0 -0 -0 -0 -0 0 0 0 0 0 0 0 0 0 0 0 0 0 0 0 0 0 0 0 0 0 0 0 0 0 0 0 0 0 0
0 0 0 0 0 -0 0 -0 -0 -0 -0 -0 -0 -0 -0 -0 0 0 0 0 -0 0 0 0 0 0 0 0 0 0 0 -0 0 0 0 0 0 0 0 0 0 0 0 0 0 0 0
0 0 0 0 -0 0 -0 -0 0 -0 -0 -0 -0 -0 -0 -0 0 0 0 0 -0 -0 0 0 0 0 0 -0 0 0 0 -0 0 0 0 0 0 0 0 0 0 0 0 0 0 0 0
0 0 0 0 0 -0 -0 -0 -0 -0 -0 -0 -0 -0 -0 0 -0 0 0 -0 -0 -0 0 0 0 0 0 0 0 0 0 0 0 0 0 0 0 0 0 0 0 0 0 0 0 0 0
0 0 -0 -0 -0 -0 -0 -0 -0 -0 -0 -0 -0 -0 -0 0 -0 0 -0 -0 0 0 0 0 0 0 0 0 0 0 0 0 0 0 0 0 0 0 0 0 0 0 0 0 0 0 0
0 0 -0 0 0 0 -0 -0 -0 -0 -0 -0 -0 -0 -0 0 -0 0 0 0 0 0 0 0 0 0 0 0 0 0 0 0 0 0 0 0 0 0 0 0 0 0 0 0 0 0 0
0 -0 0 0 0 -0 -0 -0 -0 -0 -0 -0 -0 -0 0 -0 -0 0 -0 0 0 -0 -0 0 0 0 0 0 0 0 0 0 0 0 0 0 0 0 0 0 0 0 0 0 0 0 0
-0 0 0 0 0 0 -0 -0 -0 -0 -0 -0 -0 -0 0 -0 -0 0 -0 -0 0 0 0 -0 0 0 -0 0 0 0 0 0 0 0 0 0 0 0 0 0 0 0 0 0 0 0 0
-0 0 0 0 0 -0 -0 -0 -0 -0 -0 -0 -0 0 -0 -0 0 -0 0 -0 -0 -0 -0 0 0 0 -0 0 0 0 0 0 0 0 0 0 0 0 0 0 0 0 0 0 0 0 0
-0 -0 0 0 0 -0 -0 -0 -0 -0 -0 -0 -0 -0 0 -0 0 -0 0 0 0 0 0 0 0 0 0 0 0 0 0 0 0 0 0 0 0 0 0 0 0 0 0 0 0 0 0
0 -0 -0 0 0 -0 -0 -0 -0 -0 -0 -0 -0 -0 0 -0 -0 0 0 0 0 0 0 0 0 0 0 0 0 0 0 0 0 0 0 0 0 0 0 0 0 0 0 0 0 0 0
0 -0 -0 0 -0 -0 -0 -0 -0 -0 -0 0 -0 -0 0 0 0 0 0 0 0 0 0 0 0 0 0 0 0 0 0 0 0 0 0 0 0 0 0 0 0 0 0 0 0 0 0
0 0 0 0 0 -0 -0 -0 -0 -0 -0 0 0 0 0 0 0 0 0 0 0 0 0 0 0 0 0 0 0 0 0 0 0 0 0 0 0 0 0 0 0 0 0 0 0 0 0
0 0 0 0 0 0 0 0 0 -0 -0 0 0 0 0 0 0 0 0 0 0 0 0 0 0 0 0 0 0 0 0 0 0 0 0 0 0 0 0 0 0 0 0 0 0 0 0
0 0 0 0 0 0 0 0 0 -0 -0 0 0 0 0 0 0 0 0 0 0 0 0 0 0 0 0 0 0 0 0 0 0 0 0 0 0 0 0 0 0 0 -0 -0 0 0 -0
0 0 0 0 0 0 0 0 0 0 0 0 0 0 0 0 0 0 0 0 0 0 0 0 0 0 0 0 0 0 0 0 0 0 0 0 0 0 0 0 0 0 0 0 0 0 0
0 0 0 0 0 0 0 0 0 0 0 0 0 0 0 0 0 0 0 0 0 0 0 0 0 0 0 0 0 0 0 0 0 0 0 -0 0 0 0 0 0 -0 0 0 0 0 0
0 0 0 0 0 0 0 0 0 0 0 0 0 0 0 0 0 0 0 0 0 0 0 0 0 0 0 0 0 0 0 0 0 0 0 0 0 0 0 0 0 0 0 0 0 0 0
0 0 0 0 0 0 0 0 0 0 0 0 0 0 0 0 0 0 0 0 0 0 0 0 0 0 0 0 0 0 0 0 0 0 0 0 0 0 0 0 0 0 0 0 0 0 0
0 0 0 0 0 0 0 0 0 0 0 0 0 0 0 0 0 0 0 0 0 0 0 0 0 0 0 0 0 0 0 0 0 0 0 0 0 0 0 0 0 0 0 0 0 0 0
0 0 0 0 0 0 0 0 0 0 0 0 0 0 0 0 0 0 0 0 0 -0 0 0 0 0 0 0 0 0 0 0 0 0 0 0 0 0 0 0 0 0 -0 0 0 0 -0
Wind_Speed_500mb
36 37 38 38 36 34 28 30 35 42 49 53 51 46 40 31 22 15 11 8 7 9 10 10 8 7 8 15 21 13 11 22 30 25 27 30 32 35 31 31 32 33 36 28 32 28 28
36 36 36 35 35 34 31 31 32 37 42 47 49 47 42 35 25 17 11 9 10 8 8 7 5 7 7 30 5 10 16 27 26 26 26 29 24 31 25 34 31 26 38 37 27 34 34
37 37 37 36 35 36 34 36 38 42 44 45 46 44 42 36 29 21 16 11 9 9 9 5 2 6 20 24 9 17 23 24 22 24 23 25 20 16 23 17 25 31 25 28 34 37 32
40 38 37 37 37 37 39 39 42 46 48 47 43 43 40 38 32 24 18 14 13 14 12 10 7 5 18 10 19 23 25 22 24 23 21 19 20 26 24 9 10 28 33 33 36 41 39
43 41 40 38 37 39 38 41 43 44 47 47 45 43 41 38 35 26 22 17 18 20 17 11 8 10 23 16 25 29 31 25 26 22 17 15 20 29 24 23 27 29 28 38 30 24 17
45 42 41 40 38 39 40 40 42 48 48 47 44 44 45 40 35 28 23 17 16 12 13 10 17 15 27 21 22 34 34 26 30 26 24 24 20 23 25 26 28 30 38 31 29 20 20
40 39 37 37 39 39 39 42 46 45 46 44 44 47 47 44 35 26 17 12 5 8 25 22 2 17 8 8 18 31 37 31 31 33 31 34 27 31 35 34 35 35 27 32 25 14 16
41 39 35 33 35 39 41 43 43 44 44 48 51 57 58 45 33 22 18 19 10 11 18 32 26 29 14 7 18 32 37 35 34 34 36 31 31 34 32 26 22 26 32 35 33 27 25
35 37 36 36 36 38 40 39 45 46 45 54 61 68 56 33 21 20 24 24 13 8 11 10 7 18 28 28 26 36 42 43 29 33 36 37 24 10 20 29 27 33 34 35 34 28 19
35 35 41 40 40 41 41 43 47 51 50 57 67 57 36 9 2 8 17 22 15 7 9 19 15 9 9 23 24 23 38 42 34 31 34 32 32 33 26 26 24 34 34 34 31 30 29
36 38 40 42 45 44 43 46 49 51 51 58 59 43 24 13 16 8 13 15 12 7 7 7 14 4 8 30 7 34 26 43 36 30 18 31 30 24 33 40 34 36 29 25 30 32 35
34 36 39 42 45 44 44 42 44 47 51 54 45 33 15 5 17 12 10 7 8 14 4 10 11 15 17 11 2 5 21 29 20 30 30 32 28 11 25 18 11 26 19 28 32 32 36
30 34 38 43 49 46 44 44 42 45 51 47 28 22 5 11 3 8 12 13 12 10 5 5 5 12 5 19 16 11 17 24 21 20 26 34 40 38 34 31 27 26 25 24 31 30 36
27 32 39 42 48 43 44 43 43 45 47 36 14 13 21 6 3 7 13 17 11 4 9 7 7 4 8 6 10 10 6 9 19 26 26 29 28 22 23 31 32 38 35 27 43 36 37
26 32 38 41 46 42 45 45 44 43 45 29 4 11 5 6 4 8 20 12 7 8 8 5 3 10 6 6 10 12 9 24 21 11 18 20 34 16 23 26 24 31 33 30 29 38 35
28 32 36 41 46 41 42 44 44 45 42 25 5 3 6 6 7 8 18 3 5 6 3 5 5 7 10 8 7 4 7 3 11 7 5 5 22 26 30 35 38 32 24 17 16 12 33
29 30 36 40 47 45 40 42 44 45 39 10 6 13 4 5 7 24 13 12 7 12 9 6 6 7 13 11 11 9 8 10 7 11 13 17 24 31 33 38 41 30 24 33 32 28 21
28 32 36 41 44 42 39 38 38 44 37 13 5 6 7 7 21 6 6 6 6 2 1 7 8 12 9 10 13 7 13 4 8 12 17 9 7 25 42 40 38 30 38 30 11 20 26
30 35 37 41 44 37 37 34 30 38 39 15 11 6 9 5 9 7 8 6 4 5 3 8 7 2 9 11 10 9 13 3 13 11 7 5 8 16 26 31 29 27 25 29 26 26 39
30 34 39 39 41 34 30 26 25 30 30 9 11 5 8 1 6 14 2 4 7 7 14 12 14 11 11 15 17 15 12 6 11 7 7 7 25 29 28 39 11 17 32 34 25 17 29
33 33 34 36 38 30 25 22 23 21 19 13 7 6 6 2 9 8 8 4 7 4 4 4 6 8 10 11 14 25 27 25 9 16 16 8 18 32 39 42 43 46 42 40 41 42 40
29 29 31 33 32 27 18 19 20 16 15 9 15 11 4 7 4 10 5 5 6 5 6 3 9 15 9 17 22 33 24 25 25 22 20 18 15 31 40 36 39 43 43 43 46 44 38
36 28 29 32 28 29 15 11 13 15 15 9 8 6 10 13 6 9 5 6 1 6 4 6 15 13 19 20 28 37 41 42 31 22 20 10 6 13 26 24 26 28 33 35 33 29 32
31 28 26 28 30 24 12 9 11 11 7 8 7 7 12 2 6 6 2 7 13 9 16 18 15 21 18 28 39 45 52 53 50 39 37 17 28 8 17 23 21 18 7 10 12 22 22
34 29 24 28 25 21 14 12 10 9 6 7 7 7 8 10 7 7 4 6 15 18 21 17 17 15 21 28 21 22 21 22 34 38 33 38 22 6 11 18 31 42 12 4 11 21 23
22 31 28 24 22 20 18 14 10 8 6 4 5 3 4 10 4 9 10 7 13 14 14 4 6 15 18 16 14 16 10 25 5 5 5 14 18 9 18 13 16 13 3 12 15 19 20
28 32 25 23 21 19 15 13 16 12 7 3 7 2 3 15 4 2 7 7 6 11 10 15 7 8 5 5 7 13 17 8 11 4 6 7 7 16 23 16 15 10 4 9 15 9 29
28 25 23 21 20 18 15 13 11 9 6 4 6 4 2 10 22 15 7 13 10 10 7 5 16 11 10 7 7 6 12 8 12 12 9 14 8 9 13 10 16 23 10 11 19 34 39
33 35 29 27 22 21 14 16 13 11 9 8 9 14 10 10 21 26 30 29 28 26 16 9 15 6 8 6 2 9 10 9 16 8 5 9 6 4 8 7 9 11 23 18 17 30 43
Wind_Direction_500mb
349 349 351 351 354 356 360 6 12 14 12 12 13 14 12 9 9 2 344 320 305 298 294 288 267 241 204 236 252 274 211 183 170 181 201 205 210 215 228 223 230 223 253 232 253 250 248
343 343 344 345 345 345 344 344 350 357 1 360 360 4 5 3 359 356 347 329 320 313 312 312 277 232 220 249 196 234 170 168 179 190 205 210 221 225 264 245 220 211 237 252 236 240 236
336 337 337 337 336 336 335 332 331 336 341 344 347 348 352 354 350 339 326 314 304 307 309 315 266 238 259 228 200 192 178 180 193 200 211 214 235 219 232 236 234 255 253 244 241 239 240
331 331 330 331 331 330 330 328 328 329 332 337 339 337 339 341 342 332 313 305 296 289 289 296 289 275 262 232 216 201 191 198 203 198 214 211 221 237 248 251 238 240 240 252 236 219 226
331 330 328 328 329 328 328 328 330 331 331 332 333 331 328 329 328 325 311 287 294 291 266 258 303 227 263 245 211 198 196 194 185 192 197 211 220 231 209 240 232 221 249 226 242 179 236
336 333 329 327 328 329 330 332 331 330 330 327 325 323 320 319 315 318 306 285 291 277 239 243 248 248 238 236 201 197 195 199 195 199 211 219 227 229 229 221 233 226 215 237 259 181 196
336 336 331 328 328 331 333 332 331 333 336 338 333 323 315 309 303 301 289 278 252 213 210 228 257 258 139 168 182 192 193 200 201 212 218 205 228 227 232 223 260 292 284 282 276 230 252
335 337 338 334 333 332 332 333 335 335 336 337 331 320 311 303 293 278 250 212 317 338 280 236 245 243 223 209 191 195 186 198 203 220 216 235 230 252 251 257 264 260 258 258 261 265 263
337 338 340 339 335 332 332 333 335 335 335 335 330 321 312 303 280 262 226 224 247 301 254 126 240 239 231 221 235 195 194 207 210 225 228 232 249 183 274 252 244 249 255 265 271 276 233
330 334 333 335 331 327 329 330 330 335 335 336 334 330 323 296 181 172 224 224 220 271 268 145 173 146 201 204 224 215 202 215 240 243 235 246 242 257 229 245 251 256 246 251 261 261 260
325 331 333 333 332 329 332 327 327 335 337 339 337 338 335 198 162 175 148 156 197 249 260 118 106 119 175 192 83 194 208 215 238 234 250 248 229 241 251 257 252 255 279 279 270 263 270
322 330 331 330 333 337 339 334 332 338 339 341 338 342 9 99 187 161 168 178 178 236 196 138 141 140 148 201 140 125 202 226 266 280 263 257 268 259 280 298 269 286 256 253 251 254 254
319 325 329 331 334 339 340 337 339 342 340 343 341 355 32 125 88 167 184 185 235 254 126 82 35 210 189 172 181 170 196 209 231 225 239 256 248 247 240 255 260 232 253 267 259 247 256
324 327 330 330 332 339 344 342 339 342 342 345 353 37 31 27 257 176 172 224 261 18 54 80 315 332 115 156 148 162 190 226 238 282 298 284 259 253 294 245 263 255 245 251 280 280 288
325 329 328 331 333 338 339 341 343 345 344 346 326 22 72 350 148 164 234 228 7 40 13 250 201 250 225 168 355 330 248 230 217 290 282 301 271 284 281 280 287 281 277 291 319 286 273
323 326 328 332 333 337 342 343 346 345 347 344 222 253 64 12 179 223 250 313 46 37 312 208 275 231 226 218 247 257 255 285 248 179 155 272 277 272 285 301 273 262 268 275 252 270 265
315 324 328 331 331 339 341 343 346 350 355 9 151 243 5 334 232 236 269 67 94 75 353 312 348 304 308 312 263 242 241 264 259 273 248 260 255 268 267 253 257 266 253 262 260 266 266
315 323 327 327 328 336 343 344 347 351 4 32 247 253 354 285 254 301 15 38 21 56 242 281 285 266 267 282 300 276 257 197 2 321 251 265 273 274 270 278 271 249 267 249 239 259 257
316 317 322 324 324 334 343 347 352 355 0 11 315 3 345 286 274 190 106 162 294 259 281 303 284 327 351 310 294 269 267 26 336 315 339 352 247 289 276 236 236 252 245 257 263 273 262
314 317 317 319 323 330 338 350 357 358 360 40 290 231 118 349 28 325 355 189 226 125 276 287 287 291 274 259 260 276 262 2 331 333 63 326 271 263 270 293 252 275 280 276 261 267 273
315 316 315 317 321 322 331 342 352 358 27 16 331 75 358 10 88 347 279 44 261 243 182 265 231 319 329 278 268 247 253 259 275 251 226 257 262 266 272 273 280 281 278 274 266 261 259
300 312 328 330 325 323 325 346 2 9 50 24 336 326 171 100 280 271 133 137 295 101 279 231 260 6 330 284 298 299 300 284 272 254 269 175 261 267 274 265 257 262 264 258 254 256 251
288 300 316 326 329 327 311 342 358 12 34 14 2 338 291 107 178 261 58 24 215 316 204 326 343 295 287 296 294 284 275 269 263 260 268 237 257 272 263 284 290 266 260 273 250 261 268
277 290 301 318 320 321 298 318 341 355 24 22 351 304 283 179 262 357 336 301 298 327 299 298 284 290 294 302 294 277 260 254 250 240 229 232 262 274 284 299 259 300 160 312 295 288 300
277 277 295 308 309 301 306 297 303 321 359 57 6 344 322 282 320 203 198 317 279 276 246 269 283 291 307 299 291 282 256 236 238 230 226 212 229 250 255 259 285 275 309 212 348 303 335
268 287 294 302 302 295 291 290 293 274 302 96 303 49 312 272 14 26 283 265 293 294 274 225 305 299 301 284 261 266 292 309 204 161 202 174 209 229 260 258 271 113 261 1 318 269 34
276 280 278 292 285 282 280 279 307 241 264 178 293 147 301 284 3 194 292 314 268 313 295 303 301 306 264 264 265 262 266 277 264 234 176 186 179 224 242 252 279 49 54 304 260 358 309
255 267 284 289 269 270 270 264 285 260 253 211 258 271 213 277 302 269 259 229 240 257 254 5 269 213 235 240 274 290 287 284 268 255 207 199 227 213 238 246 244 358 331 335 343 329 325
266 274 279 272 263 252 257 249 263 267 240 239 229 290 283 245 280 288 263 254 245 247 246 241 314 284 346 285 286 284 274 292 305 284 298 279 233 335 255 303 291 295 263 315 338 317 311
Wind_Speed_850mb
36 37 38 38 36 34 28 30 35 42 49 53 51 46 40 31 22 15 11 8 7 9 10 10 8 7 8 15 21 13 11 22 30 25 27 30 32 35 31 31 32 33 36 28 32 28 28
36 36 36 35 35 34 31 31 32 37 42 47 49 47 42 35 25 17 11 9 10 8 8 7 5 7 7 30 5 10 16 27 26 26 26 29 24 31 25 34 31 26 38 37 27 34 34
37 37 37 36 35 36 34 36 38 42 44 45 46 44 42 36 29 21 16 11 9 9 9 5 2 6 20 24 9 17 23 24 22 24 23 25 20 16 23 17 25 31 25 28 34 37 32
40 38 37 37 37 37 39 39 42 46 48 47 43 43 40 38 32 24 18 14 13 14 12 10 7 5 18 10 19 23 25 22 24 23 21 19 20 26 24 9 10 28 33 33 36 41 39
43 41 40 38 37 39 38 41 43 44 47 47 45 43 41 38 35 26 22 17 18 20 17 11 8 10 23 16 25 29 31 25 26 22 17 15 20 29 24 23 27 29 28 38 30 24 17
45 42 41 40 38 39 40 40 42 48 48 47 44 44 45 40 35 28 23 17 16 12 13 10 17 15 27 21 22 34 34 26 30 26 24 24 20 23 25 26 28 30 38 31 29 20 20
40 39 37 37 39 39 39 42 46 45 46 44 44 47 47 44 35 26 17 12 5 8 25 22 2 17 8 8 18 31 37 31 31 33 31 34 27 31 35 34 35 35 27 32 25 14 16
41 39 35 33 35 39 41 43 43 44 44 48 51 57 58 45 33 22 18 19 10 11 18 32 26 29 14 7 18 32 37 35 34 34 36 31 31 34 32 26 22 26 32 35 33 27 25
35 37 36 36 36 38 40 39 45 46 45 54 61 68 56 33 21 20 24 24 13 8 11 10 7 18 28 28 26 36 42 43 29 33 36 37 24 10 20 29 27 33 34 35 34 28 19
35 35 41 40 40 41 41 43 47 51 50 57 67 57 36 9 2 8 17 22 15 7 9 19 15 9 9 23 24 23 38 42 34 31 34 32 32 33 26 26 24 34 34 34 31 30 29
36 38 40 42 45 44 43 46 49 51 51 58 59 43 24 13 16 8 13 15 12 7 7 7 14 4 8 30 7 34 26 43 36 30 18 31 30 24 33 40 34 36 29 25 30 32 35
34 36 39 42 45 44 44 42 44 47 51 54 45 33 15 5 17 12 10 7 8 14 4 10 11 15 17 11 2 5 21 29 20 30 30 32 28 11 25 18 11 26 19 28 32 32 36
30 34 38 43 49 46 44 44 42 45 51 47 28 22 5 11 3 8 12 13 12 10 5 5 5 12 5 19 16 11 17 24 21 20 26 34 40 38 34 31 27 26 25 24 31 30 36
27 32 39 42 48 43 44 43 43 45 47 36 14 13 21 6 3 7 13 17 11 4 9 7 7 4 8 6 10 10 6 9 19 26 26 29 28 22 23 31 32 38 35 27 43 36 37
26 32 38 41 46 42 45 45 44 43 45 29 4 11 5 6 4 8 20 12 7 8 8 5 3 10 6 6 10 12 9 24 21 11 18 20 34 16 23 26 24 31 33 30 29 38 35
28 32 36 41 46 41 42 44 44 45 42 25 5 3 6 6 7 8 18 3 5 6 3 5 5 7 10 8 7 4 7 3 11 7 5 5 22 26 30 35 38 32 24 17 16 12 33
29 30 36 40 47 45 40 42 44 45 39 10 6 13 4 5 7 24 13 12 7 12 9 6 6 7 13 11 11 9 8 10 7 11 13 17 24 31 33 38 41 30 24 33 32 28 21
28 32 36 41 44 42 39 38 38 44 37 13 5 6 7 7 21 6 6 6 6 2 1 7 8 12 9 10 13 7 13 4 8 12 17 9 7 25 42 40 38 30 38 30 11 20 26
30 35 37 41 44 37 37 34 30 38 39 15 11 6 9 5 9 7 8 6 4 5 3 8 7 2 9 11 10 9 13 3 13 11 7 5 8 16 26 31 29 27 25 29 26 26 39
30 34 39 39 41 34 30 26 25 30 30 9 11 5 8 1 6 14 2 4 7 7 14 12 14 11 11 15 17 15 12 6 11 7 7 7 25 29 28 39 11 17 32 34 25 17 29
33 33 34 36 38 30 25 22 23 21 19 13 7 6 6 2 9 8 8 4 7 4 4 4 6 8 10 11 14 25 27 25 9 16 16 8 18 32 39 42 43 46 42 40 41 42 40
29 29 31 33 32 27 18 19 20 16 15 9 15 11 4 7 4 10 5 5 6 5 6 3 9 15 9 17 22 33 24 25 25 22 20 18 15 31 40 36 39 43 43 43 46 44 38
36 28 29 32 28 29 15 11 13 15 15 9 8 6 10 13 6 9 5 6 1 6 4 6 15 13 19 20 28 37 41 42 31 22 20 10 6 13 26 24 26 28 33 35 33 29 32
31 28 26 28 30 24 12 9 11 11 7 8 7 7 12 2 6 6 2 7 13 9 16 18 15 21 18 28 39 45 52 53 50 39 37 17 28 8 17 23 21 18 7 10 12 22 22
34 29 24 28 25 21 14 12 10 9 6 7 7 7 8 10 7 7 4 6 15 18 21 17 17 15 21 28 21 22 21 22 34 38 33 38 22 6 11 18 31 42 12 4 11 21 23
22 31 28 24 22 20 18 14 10 8 6 4 5 3 4 10 4 9 10 7 13 14 14 4 6 15 18 16 14 16 10 25 5 5 5 14 18 9 18 13 16 13 3 12 15 19 20
28 32 25 23 21 19 15 13 16 12 7 3 7 2 3 15 4 2 7 7 6 11 10 15 7 8 5 5 7 13 17 8 11 4 6 7 7 16 23 16 15 10 4 9 15 9 29
28 25 23 21 20 18 15 13 11 9 6 4 6 4 2 10 22 15 7 13 10 10 7 5 16 11 10 7 7 6 12 8 12 12 9 14 8 9 13 10 16 23 10 11 19 34 39
33 35 29 27 22 21 14 16 13 11 9 8 9 14 10 10 21 26 30 29 28 26 16 9 15 6 8 6 2 9 10 9 16 8 5 9 6 4 8 7 9 11 23 18 17 30 43
Wind_Direction_850mb
349 349 351 351 354 356 360 6 12 14 12 12 13 14 12 9 9 2 344 320 305 298 294 288 267 241 204 236 252 274 211 183 170 181 201 205 210 215 228 223 230 223 253 232 253 250 248
343 343 344 345 345 345 344 344 350 357 1 360 360 4 5 3 359 356 347 329 320 313 312 312 277 232 220 249 196 234 170 168 179 190 205 210 221 225 264 245 220 211 237 252 236 240 236
336 337 337 337 336 336 335 332 331 336 341 344 347 348 352 354 350 339 326 314 304 307 309 315 266 238 259 228 200 192 178 180 193 200 211 214 235 219 232 236 234 255 253 244 241 239 240
331 331 330 331 331 330 330 328 328 329 332 337 339 337 339 341 342 332 313 305 296 289 289 296 289 275 262 232 216 201 191 198 203 198 214 211 221 237 248 251 238 240 240 252 236 219 226
331 330 328 328 329 328 328 328 330 331 331 332 333 331 328 329 328 325 311 287 294 291 266 258 303 227 263 245 211 198 196 194 185 192 197 211 220 231 209 240 232 221 249 226 242 179 236
336 333 329 327 328 329 330 332 331 330 330 327 325 323 320 319 315 318 306 285 291 277 239 243 248 248 238 236 201 197 195 199 195 199 211 219 227 229 229 221 233 226 215 237 259 181 196
336 336 331 328 328 331 333 332 331 333 336 338 333 323 315 309 303 301 289 278 252 213 210 228 257 258 139 168 182 192 193 200 201 212 218 205 228 227 232 223 260 292 284 282 276 230 252
335 337 338 334 333 332 332 333 335 335 336 337 331 320 311 303 293 278 250 212 317 338 280 236 245 243 223 209 191 195 186 198 203 220 216 235 230 252 251 257 264 260 258 258 261 265 263
337 338 340 339 335 332 332 333 335 335 335 335 330 321 312 303 280 262 226 224 247 301 254 126 240 239 231 221 235 195 194 207 210 225 228 232 249 183 274 252 244 249 255 265 271 276 233
330 334 333 335 331 327 329 330 330 335 335 336 334 330 323 296 181 172 224 224 220 271 268 145 173 146 201 204 224 215 202 215 240 243 235 246 242 257 229 245 251 256 246 251 261 261 260
325 331 333 333 332 329 332 327 327 335 337 339 337 338 335 198 162 175 148 156 197 249 260 118 106 119 175 192 83 194 208 215 238 234 250 248 229 241 251 257 252 255 279 279 270 263 270
322 330 331 330 333 337 339 334 332 338 339 341 338 342 9 99 187 161 168 178 178 236 196 138 141 140 148 201 140 125 202 226 266 280 263 257 268 259 280 298 269 286 256 253 251 254 254
319 325 329 331 334 339 340 337 339 342 340 343 341 355 32 125 88 167 184 185 235 254 126 82 35 210 189 172 181 170 196 209 231 225 239 256 248 247 240 255 260 232 253 267 259 247 256
324 327 330 330 332 339 344 342 339 342 342 345 353 37 31 27 257 176 172 224 261 18 54 80 315 332 115 156 148 162 190 226 238 282 298 284 259 253 294 245 263 255 245 251 280 280 288
325 329 328 331 333 338 339 341 343 345 344 346 326 22 72 350 148 164 234 228 7 40 13 250 201 250 225 168 355 330 248 230 217 290 282 301 271 284 281 280 287 281 277 291 319 286 273
323 326 328 332 333 337 342 343 346 345 347 344 222 253 64 12 179 223 250 313 46 37 312 208 275 231 226 218 247 257 255 285 248 179 155 272 277 272 285 301 273 262 268 275 252 270 265
315 324 328 331 331 339 341 343 346 350 355 9 151 243 5 334 232 236 269 67 94 75 353 312 348 304 308 312 263 242 241 264 259 273 248 260 255 268 267 253 257 266 253 262 260 266 266
315 323 327 327 328 336 343 344 347 351 4 32 247 253 354 285 254 301 15 38 21 56 242 281 285 266 267 282 300 276 257 197 2 321 251 265 273 274 270 278 271 249 267 249 239 259 257
316 317 322 324 324 334 343 347 352 355 0 11 315 3 345 286 274 190 106 162 294 259 281 303 284 327 351 310 294 269 267 26 336 315 339 352 247 289 276 236 236 252 245 257 263 273 262
314 317 317 319 323 330 338 350 357 358 360 40 290 231 118 349 28 325 355 189 226 125 276 287 287 291 274 259 260 276 262 2 331 333 63 326 271 263 270 293 252 275 280 276 261 267 273
315 316 315 317 321 322 331 342 352 358 27 16 331 75 358 10 88 347 279 44 261 243 182 265 231 319 329 278 268 247 253 259 275 251 226 257 262 266 272 273 280 281 278 274 266 261 259
300 312 328 330 325 323 325 346 2 9 50 24 336 326 171 100 280 271 133 137 295 101 279 231 260 6 330 284 298 299 300 284 272 254 269 175 261 267 274 265 257 262 264 258 254 256 251
288 300 316 326 329 327 311 342 358 12 34 14 2 338 291 107 178 261 58 24 215 316 204 326 343 295 287 296 294 284 275 269 263 260 268 237 257 272 263 284 290 266 260 273 250 261 268
277 290 301 318 320 321 298 318 341 355 24 22 351 304 283 179 262 357 336 301 298 327 299 298 284 290 294 302 294 277 260 254 250 240 229 232 262 274 284 299 259 300 160 312 295 288 300
277 277 295 308 309 301 306 297 303 321 359 57 6 344 322 282 320 203 198 317 279 276 246 269 283 291 307 299 291 282 256 236 238 230 226 212 229 250 255 259 285 275 309 212 348 303 335
268 287 294 302 302 295 291 290 293 274 302 96 303 49 312 272 14 26 283 265 293 294 274 225 305 299 301 284 261 266 292 309 204 161 202 174 209 229 260 258 271 113 261 1 318 269 34
276 280 278 292 285 282 280 279 307 241 264 178 293 147 301 284 3 194 292 314 268 313 295 303 301 306 264 264 265 262 266 277 264 234 176 186 179 224 242 252 279 49 54 304 260 358 309
255 267 284 289 269 270 270 264 285 260 253 211 258 271 213 277 302 269 259 229 240 257 254 5 269 213 235 240 274 290 287 284 268 255 207 199 227 213 238 246 244 358 331 335 343 329 325
266 274 279 272 263 252 257 249 263 267 240 239 229 290 283 245 280 288 263 254 245 247 246 241 314 284 346 285 286 284 274 292 305 284 298 279 233 335 255 303 291 295 263 315 338 317 311